Location: Napier
(39.4830°S, 176.9170°E)
Time: 03:09:05
(UTC+13:00)

Aureole 3 Rocket - Pass Details

Date: 24 January 2019
Orbit: 399 x 1742 km, 82.5° (Epoch: 18 February)

Event Time Altitude Azimuth Distance (km) Brightness Sun altitude
Rises 21:43:07 0° 190° (S) 2,463 6.9 -11.8°
Reaches altitude 10° 21:44:59 10° 192° (SSW) 1,660 6.0 -12.1°
Maximum altitude 21:48:30 73° 277° (W) 586 3.0 -12.7°
Drops below altitude 10° 21:53:04 10° 0° (N) 2,140 5.4 -13.3°
Enters shadow 21:53:50 - 1° (N) 2,468 5.8 -13.5°
